sat.trackr.live / text

‹ back to catalog

FENGYUN 3G

NORAD 56232 · 2023-055A

PAYLOAD ACTIVE UNKNOWN

§ Identity

Operator
Country
PRC
Launch date
2023-04-16
Launch site
JSC
Launch vehicle
Mass (kg)
RCS (m²)

Purposes: earth_obs

External: N2YO · Heavens-Above · Gunter

§ Orbital elements

Epoch: 2026-05-25T03:26:30.643872Z

Period
92.69 min
Inclination
49.9919°
Eccentricity
0.0005644
Mean motion
15.53582391 rev/d
Perigee alt
402.4 km
Apogee alt
410.1 km
Semi-major
6,784.4 km
B*
3.6597e-4
RAAN
104.9087°
Arg perigee
91.5589°
Mean anomaly
268.6025°
Rev number
17,642

§ Raw data

FENGYUN 3G1 56232U 23055A   26145.14341023  .00023393  00000+0  36597-3 0  99912 56232  49.9919 104.9087 0005644  91.5589 268.6025 15.53582391176427

JSON: /api/v1/satellites/56232 · /tle

For live sub-satellite position, see the globe view (requires WebGL).

§ Visibility from observer

Set your observer location to see the next 7 days of passes ≥ 10°. The values pass through the URL so the page stays shareable.

No JS? Fill the form by hand. The geolocation button needs JavaScript.